User: anonymous   Login
Location: Blanot
(47.1713°N, 4.2340°E)
Time: 01:04:32
(UTC+00:00)
Language:

COBE Rocket - Orbit

View from above orbital plane
View from above orbital plane
View from above satellite
View from above satellite

Ground track
Ground track

The orbit data is extracted from the following two-line orbital elements,

1 20323U 89089B   20272.36445900 +.00000035 +00000-0 +18384-4 0  9994
2 20323 097.1051 041.8067 0070179 267.1394 092.1769 14.48359894607762
Epoch (UTC): 28 September 2020 08:44:49
Eccentricity: 0.0070179
inclination: 97.1051°
perigee height: 681 km
apogee height: 781 km
right ascension of ascending node: 41.8067°
argument of perigee: 267.1394°
revolutions per day: 14.48359894
mean anomaly at epoch: 92.1769°
orbit number at epoch: 60776

The dashed part of the orbit path shows where the satellite is in the earth's shadow,  

DLR